FLOCK 2K-19 (42886 NORAD) Tracking and Keplerian Element Data

This shows tracking and keplerian element data for the satellite.

Feedback or suggestion? Click here.




ElementValue
Catalog42886
NameFLOCK 2K-19
Epoch Orbit23607
Epoch Day269.80882849
Epoch Year2021
RAAN117.7884
Inclination96.8406
Eccentricity0.0010795
Argument of Perigee55.3701
Mean Anonmoly304.8567
Mean Motion15.47745614
Decay Rate0.00015752
L11 42886U 17042BP 21269.80882849 .00015752 00000-0 30484-3 0 9991
L22 42886 96.8406 117.7884 0010795 55.3701 304.8567 15.47745614236077

Live tracking and technical data element details for FLOCK 2K-19 (NORAD 42886). FLOCK 2K-19 can be tracked NOW for your location showing map with azimuth and elevation plus other details from your city location.

Track the satellite on the map from your city or location and see movement details for azimuth, elevation, latitude, longitude, range, height, and movement on the map or in text.







IsCatalogInMostPopularTable: catalog: 42886, numindb: 544
Update: records affected: 1



GetName: 42886 FLOCK 2K-19

Hit Count: updated at: Tue, 28 Sep 2021 17:03:41 GMT